Regional Weather Roundup
Issued by NWS

Home | Current Version | Previous Version | Graphics & Text | Print | Product List | Glossary On
Versions: 1 2 3 4 5 6 7 8 9 10 11 12 13 14 15 16 17 18 19 20 21 22 23 24 25 26 27
000
ASUS45 KTFX 190510
RWRMT
MONTANA REGIONAL WEATHER ROUNDUP
NATIONAL WEATHER SERVICE GREAT FALLS MT
1100 PM MDT WED APR 18 2018

NOTE: "FAIR" INDICATES FEW OR NO CLOUDS BELOW 12000 FEET WITH NO
SIGNIFICANT WEATHER AND/OR OBSTRUCTIONS TO VISIBILITY.

MTZ001>007-043-190600-
WEST OF THE DIVIDE

CITY           SKY/WX    TMP DP  RH WIND       PRES   REMARKS
KALISPELL      FAIR      34  27  75 CALM      30.14F
MISSOULA       FAIR      41  25  53 W7        30.11R
BUTTE          FAIR      35  24  64 SE3       30.10F
MULLAN PASS    FAIR      30  20  66 VRB3      30.08S
ANACONDA         N/A     37  21  52 W3        30.10F
DEER LODGE       N/A     37  25  60 NW7       30.12F
HAMILTON         N/A     45  21  39 MISG      30.09R
RONAN            N/A     39  27  60 E5        30.14S
$$

MTZ008-052>055-190600-
SOUTHWEST MONTANA

CITY           SKY/WX    TMP DP  RH WIND       PRES   REMARKS
BOZEMAN        FAIR      38  24  57 W5        30.11F
DILLON         FAIR      38  22  52 SE9       30.08S WCI  31
ENNIS          MOCLDY    36  18  48 E7        30.13F WCI  30
W YELLOWSTONE  MOCLDY    27  19  74 CALM      30.11S
THREE FORKS      N/A     41  26  55 CALM      30.09S
$$

MTZ009-010-012-014-046-048-049-054-190600-
EAST SLOPES AND CENTRAL MONTANA

CITY           SKY/WX    TMP DP  RH WIND       PRES   REMARKS
CUT BANK       FAIR      30  23  75 N3        30.18R
GREAT FALLS    FAIR      38  22  52 E10       30.15S WCI  31
HELENA         FAIR      42  24  49 W8        30.12S
AUGUSTA        MOCLDY    33  27  79 N13       30.15S WCI  24
BOWMANS CRNR   MOCLDY    37  16  42 CALM      30.13R
CHOTEAU          N/A     32  27  80 W6        30.18S WCI  26
FAIRFIELD      FAIR      35  24  63 NE7       30.14S WCI  29
POWER          FAIR      37  23  57 E10       30.15S WCI  29
RAYNESFORD     FAIR      37  24  57 E9        30.16S WCI  31
ULM            FAIR      35  22  60 CALM      30.14S
WHITE SULPHUR    N/A     32  19  59 VRB3      30.13S
$$

MTZ011-013-016-021-045-047-050-051-190600-
NORTH CENTRAL MONTANA

CITY           SKY/WX    TMP DP  RH WIND       PRES   REMARKS
HAVRE          FAIR      38  31  76 E7        30.21S
LEWISTOWN      FAIR      37  24  59 SE8       30.18R WCI  31
N BAR RANCH    FAIR      28  21  74 NW3       30.22R
CHINOOK          N/A     37  34  87 E6        30.23S
GEYSER         FAIR      34  24  65 CALM      30.17S
GRASS RANGE    FAIR      34  26  72 W5        30.17R
STANFORD       FAIR      31  24  77 S6        30.17R WCI  25
$$

MTZ017>020-022>027-061-062-190600-
NORTHEAST MONTANA

CITY           SKY/WX    TMP DP  RH WIND       PRES   REMARKS
GLASGOW        FAIR      41  33  73 E15       30.26F
GLENDIVE       FAIR      36  34  92 NE9       30.30R WCI  29
JORDAN           N/A     41  34  76 E13       30.24R
MALTA          CLEAR     41  36  81 NE10      30.24R
SIDNEY         CLOUDY    35  34  96 NE7       30.33R FOG     WCI  29
WOLF POINT     FAIR      34  31  88 NE9       30.31S WCI  27
PLENTYWOOD       N/A     32  32 100 CALM      30.32S
POPLAR           N/A     36  32  87 E5        30.32S
$$

MTZ028>42-056>058-190600-
SOUTHCENTRAL AND SOUTHEAST MONTANA

CITY           SKY/WX    TMP DP  RH WIND       PRES   REMARKS
BAKER          FAIR      34  29  82 E7        30.28R WCI  28
BILLINGS       FAIR      45  22  40 E8        30.17S
LIVINGSTON     FAIR      42  25  50 E17       30.11S
MILES CITY     FAIR      43  33  68 NE8       30.24S
BIG TIMBER     CLEAR     39  23  52 CALM      30.16S
FORSYTH          N/A     43  34  70 E7        30.23S
HARLOWTON      FAIR      36  23  61 E6        30.17R WCI  31
LAUREL           N/A     43  23  45 NE12      30.17F
$$

REGIONAL REPORTS...DAKOTAS

CITY           SKY/WX    TMP DP  RH WIND       PRES   REMARKS
WILLISTON      CLOUDY    36  33  89 N9        30.34R WCI  29
MINOT          FAIR      35  32  88 W6        30.30R WCI  30
DICKINSON      FAIR      32  31  96 SE6       30.27S FOG     WCI  26
BEACH          FAIR      32  30  93 CALM      30.32R
CROSBY         CLOUDY    34  34 100 N6        30.33S FOG     WCI  29
TIOGA          CLOUDY    34  34 100 N5        30.33S FOG
WATFORD CITY   FOG       34  34 100 NE7       30.32S VSB 1/4 WCI  28
BISMARCK       FAIR      31  27  85 CALM      30.32R
GRAND FORKS    FAIR      31  29  92 W7        30.29R WCI  24
FARGO          FAIR      33  30  88 NW5       30.27R
BUFFALO SD       N/A     39  30  70 E7        30.22R
RAPID CITY     FAIR      35  32  88 CALM      30.29R
$$

REGIONAL REPORTS...WYOMING/IDAHO/WASHINGTON

CITY           SKY/WX    TMP DP  RH WIND       PRES   REMARKS
GILLETTE       FAIR      30  24  78 SW3       30.23F
SHERIDAN       FAIR      34  25  69 S5        30.21F
BUFFALO WY     FAIR      37  20  50 SW6       30.23F
CODY           FAIR      38  24  57 SW3       30.17S
YELLOWSTONE LA   N/A     23  12  62 CALM      30.17S
IDAHO FALLS    FAIR      41  27  57 N6        30.06F
SALMON         CLOUDY    46  29  51 N5        30.05R
BOISE          CLOUDY    55  26  32 N12       29.94F
SPOKANE        FAIR      45  30  55 NE8       30.12R
$$

REGIONAL REPORTS...ALBERTA

CITY           SKY/WX    TMP DP  RH WIND       PRES   REMARKS
CALGARY        PTCLDY    37  19  48 S5        30.15S
CARDSTON         N/A     34  27  75 SE5         N/A
EDMONTON       CLEAR     37  19  48 S7        30.14S
FORT MCMURRAY  CLEAR     36  28  75 S8        30.07S WCI  29
HIGH LEVEL     CLEAR     39  18  41 SE6       29.92F
LETHBRIDGE     CLEAR     34  28  80 S13G22    30.17S WCI  25
LLOYDMINSTER   CLEAR     36  25  64 S10       30.19S WCI  28
MEDICINE HAT   CLEAR     37  28  70 S3        30.19S
MILK RIVER       N/A     36  27  69 SW1         N/A
PEACE RIVER    PTCLDY    34  19  55 SW5       30.03S
PINCHER CREEK  MOCLDY    34  25  69 W8        30.15S WCI  27
WATERTON GATE    N/A     36  23  60 S7          N/A  WCI  30
$$

REGIONAL REPORTS...SASKATCHEWAN

CITY           SKY/WX    TMP DP  RH WIND       PRES   REMARKS
CORONACH         N/A     32  30  93 E3          N/A
CYPRESS HILLS    N/A     34  28  80 SE7         N/A  WCI  28
ESTEVAN        CLOUDY    34  32  93 NW6       30.32S WCI  29
MOOSE JAW        N/A     30  27  86 S9          N/A  WCI  22
PRINCE ALBERT  CLEAR     34  28  80 SW7       30.26R WCI  28
REGINA         CLEAR     32  30  93 S2        30.32S
ROCKGLEN         N/A     30  25  80 E3          N/A
SASKATOON      PTCLDY    36  28  75 S8        30.27S WCI  29
SWIFT CURRENT  CLEAR     34  28  80 SE15      30.25R WCI  24
VAL MARIE        N/A     36  28  75 E14         N/A  WCI  27
$$




USA.gov is the U.S. government's official web portal to all federal, state and local government web resources and services.